QPF
0.03 0.02 0.00 0.00 0.00 0.00 0.00 0.00 0.00 0.00 0.00 0.00 0.00 0.00 0.00 0.00 0.00 0.00 0.00 0.00 0.00 0.00 0.00 0.00 0.00 0.00 0.00 0.01 0.01 0.01 0.01 0.01 0.01 0.01 0.02 0.03 0.05 0.06 0.06 0.06 0.05 0.03 0.03
0.03 0.02 0.01 0.00 0.00 0.00 0.00 0.00 0.00 0.00 0.00 0.00 0.00 0.00 0.00 0.00 0.00 0.00 0.00 0.01 0.00 0.00 0.00 0.00 0.00 0.00 0.01 0.01 0.01 0.01 0.02 0.01 0.01 0.03 0.04 0.03 0.04 0.05 0.04 0.03 0.03 0.03 0.02
0.03 0.01 0.00 0.00 0.00 0.00 0.00 0.00 0.00 0.00 0.00 0.00 0.00 0.00 0.00 0.00 0.00 0.00 0.00 0.01 0.00 0.00 0.00 0.00 0.00 0.00 0.00 0.01 0.01 0.01 0.02 0.01 0.01 0.02 0.03 0.03 0.02 0.02 0.02 0.02 0.02 0.02 0.02
0.04 0.01 0.00 0.00 0.00 0.00 0.00 0.00 0.00 0.00 0.00 0.00 0.00 0.00 0.00 0.00 0.00 0.00 0.01 0.01 0.00 0.00 0.00 0.00 0.00 0.00 0.00 0.00 0.00 0.00 0.00 0.00 0.01 0.01 0.01 0.02 0.02 0.02 0.02 0.02 0.02 0.02 0.03
0.02 0.01 0.00 0.00 0.00 0.00 0.00 0.00 0.00 0.00 0.00 0.00 0.00 0.00 0.00 0.00 0.00 0.00 0.01 0.00 0.00 0.00 0.00 0.00 0.00 0.00 0.00 0.00 0.00 0.00 0.00 0.00 0.00 0.00 0.01 0.01 0.02 0.02 0.02 0.01 0.02 0.02 0.03
0.00 0.01 0.01 0.01 0.00 0.00 0.00 0.00 0.00 0.00 0.00 0.00 0.00 0.00 0.00 0.00 0.00 0.00 0.00 0.00 0.00 0.00 0.00 0.00 0.00 0.00 0.00 0.00 0.00 0.00 0.00 0.00 0.00 0.01 0.01 0.01 0.02 0.01 0.02 0.01 0.01 0.02 0.03
0.00 0.00 0.01 0.00 0.00 0.00 0.00 0.00 0.00 0.00 0.00 0.00 0.00 0.00 0.00 0.00 0.00 0.00 0.00 0.00 0.00 0.00 0.00 0.00 0.00 0.00 0.00 0.00 0.00 0.00 0.00 0.00 0.00 0.00 0.01 0.01 0.01 0.01 0.01 0.01 0.02 0.02 0.02
0.01 0.00 0.00 0.01 0.00 0.00 0.00 0.00 0.00 0.00 0.00 0.00 0.00 0.00 0.00 0.00 0.00 0.00 0.00 0.00 0.00 0.00 0.00 0.00 0.00 0.00 0.00 0.00 0.00 0.00 0.00 0.00 0.00 0.00 0.00 0.01 0.01 0.01 0.01 0.01 0.03 0.03 0.02
0.00 0.00 0.00 0.01 0.00 0.00 0.00 0.00 0.00 0.00 0.00 0.00 0.00 0.00 0.00 0.00 0.00 0.00 0.00 0.00 0.00 0.00 0.00 0.00 0.00 0.00 0.00 0.00 0.00 0.00 0.00 0.00 0.00 0.00 0.00 0.00 0.01 0.01 0.01 0.01 0.04 0.04 0.03
0.00 0.01 0.01 0.01 0.00 0.00 0.00 0.00 0.00 0.00 0.00 0.00 0.00 0.00 0.00 0.00 0.00 0.00 0.00 0.00 0.00 0.00 0.00 0.00 0.00 0.00 0.00 0.00 0.00 0.00 0.00 0.00 0.00 0.00 0.00 0.00 0.01 0.01 0.00 0.01 0.02 0.03 0.03
0.00 0.00 0.01 0.00 0.01 0.00 0.00 0.00 0.00 0.00 0.00 0.00 0.00 0.00 0.00 0.00 0.00 0.00 0.00 0.00 0.00 0.00 0.00 0.00 0.00 0.00 0.00 0.00 0.00 0.00 0.00 0.00 0.00 0.00 0.00 0.01 0.01 0.00 0.00 0.01 0.02 0.02 0.01
0.00 0.00 0.01 0.01 0.00 0.00 0.00 0.00 0.01 0.00 0.00 0.00 0.00 0.00 0.00 0.00 0.00 0.00 0.00 0.00 0.00 0.00 0.00 0.00 0.00 0.00 0.00 0.00 0.00 0.00 0.00 0.00 0.00 0.00 0.00 0.00 0.00 0.00 0.00 0.00 0.00 0.00 0.00
0.00 0.00 0.01 0.01 0.00 0.00 0.00 0.00 0.01 0.00 0.00 0.00 0.00 0.00 0.00 0.00 0.00 0.00 0.00 0.00 0.00 0.00 0.00 0.00 0.00 0.00 0.00 0.00 0.00 0.00 0.00 0.00 0.00 0.00 0.00 0.00 0.00 0.01 0.01 0.00 0.00 0.00 0.00
0.00 0.00 0.01 0.01 0.01 0.00 0.00 0.00 0.01 0.00 0.00 0.00 0.00 0.00 0.00 0.00 0.00 0.00 0.00 0.00 0.00 0.00 0.00 0.00 0.00 0.00 0.00 0.00 0.00 0.00 0.00 0.00 0.00 0.00 0.00 0.00 0.00 0.01 0.01 0.00 0.00 0.00 0.00
0.00 0.00 0.01 0.01 0.01 0.01 0.01 0.00 0.00 0.00 0.00 0.00 0.00 0.00 0.00 0.00 0.00 0.00 0.00 0.00 0.00 0.00 0.00 0.00 0.00 0.00 0.00 0.00 0.00 0.00 0.00 0.00 0.00 0.00 0.00 0.00 0.00 0.00 0.00 0.00 0.00 0.00 0.00
0.00 0.00 0.01 0.01 0.01 0.01 0.01 0.01 0.00 0.00 0.00 0.01 0.00 0.00 0.00 0.00 0.00 0.00 0.00 0.00 0.00 0.00 0.00 0.00 0.00 0.00 0.00 0.00 0.00 0.00 0.00 0.00 0.00 0.00 0.00 0.00 0.00 0.00 0.00 0.00 0.00 0.00 0.00
0.00 0.01 0.01 0.01 0.01 0.01 0.01 0.01 0.00 0.00 0.00 0.01 0.01 0.01 0.00 0.00 0.00 0.00 0.00 0.00 0.00 0.00 0.00 0.00 0.00 0.00 0.00 0.00 0.00 0.00 0.00 0.00 0.00 0.00 0.00 0.00 0.00 0.00 0.00 0.00 0.00 0.00 0.00
0.00 0.00 0.00 0.00 0.01 0.01 0.01 0.01 0.00 0.00 0.00 0.01 0.01 0.01 0.00 0.00 0.00 0.00 0.00 0.00 0.00 0.00 0.00 0.00 0.00 0.00 0.00 0.00 0.00 0.00 0.00 0.00 0.00 0.00 0.00 0.00 0.00 0.00 0.00 0.00 0.00 0.00 0.00
0.00 0.00 0.00 0.00 0.00 0.01 0.01 0.01 0.00 0.00 0.00 0.01 0.00 0.01 0.01 0.00 0.00 0.00 0.00 0.00 0.00 0.00 0.00 0.00 0.00 0.00 0.00 0.00 0.00 0.00 0.00 0.00 0.00 0.00 0.00 0.00 0.00 0.00 0.00 0.00 0.00 0.00 0.00
0.00 0.00 0.00 0.00 0.00 0.00 0.00 0.00 0.00 0.00 0.01 0.01 0.01 0.00 0.00 0.00 0.00 0.00 0.00 0.00 0.00 0.00 0.00 0.00 0.00 0.00 0.00 0.00 0.00 0.00 0.00 0.00 0.00 0.00 0.00 0.00 0.00 0.00 0.00 0.01 0.01 0.01 0.01
0.00 0.00 0.00 0.00 0.00 0.00 0.00 0.00 0.00 0.00 0.01 0.01 0.00 0.00 0.00 0.00 0.00 0.00 0.00 0.00 0.00 0.00 0.00 0.00 0.00 0.00 0.00 0.00 0.00 0.00 0.00 0.00 0.00 0.00 0.00 0.00 0.00 0.00 0.00 0.01 0.01 0.01 0.01
0.00 0.00 0.00 0.00 0.00 0.01 0.01 0.00 0.00 0.01 0.01 0.00 0.00 0.00 0.00 0.00 0.00 0.00 0.00 0.00 0.00 0.00 0.00 0.00 0.00 0.00 0.00 0.00 0.00 0.00 0.00 0.00 0.00 0.00 0.00 0.00 0.00 0.00 0.00 0.00 0.01 0.01 0.01
0.00 0.00 0.00 0.00 0.00 0.01 0.01 0.01 0.01 0.01 0.01 0.01 0.00 0.00 0.00 0.00 0.00 0.00 0.00 0.00 0.00 0.00 0.00 0.00 0.00 0.00 0.00 0.00 0.00 0.00 0.00 0.00 0.00 0.00 0.00 0.00 0.00 0.00 0.00 0.00 0.00 0.00 0.00
0.00 0.00 0.00 0.00 0.01 0.01 0.01 0.01 0.01 0.02 0.01 0.01 0.01 0.01 0.01 0.01 0.01 0.00 0.00 0.00 0.00 0.00 0.00 0.00 0.00 0.00 0.00 0.00 0.00 0.00 0.00 0.00 0.00 0.00 0.00 0.00 0.00 0.00 0.00 0.00 0.00 0.00 0.00
0.00 0.00 0.00 0.01 0.01 0.01 0.01 0.01 0.01 0.01 0.01 0.01 0.01 0.01 0.01 0.01 0.01 0.01 0.00 0.00 0.00 0.00 0.00 0.00 0.00 0.00 0.00 0.00 0.00 0.00 0.00 0.00 0.00 0.00 0.00 0.00 0.00 0.00 0.00 0.00 0.00 0.00 0.00
0.00 0.00 0.00 0.01 0.01 0.01 0.01 0.01 0.00 0.01 0.01 0.01 0.01 0.01 0.01 0.01 0.01 0.01 0.00 0.01 0.00 0.00 0.00 0.00 0.00 0.00 0.00 0.00 0.00 0.00 0.00 0.00 0.00 0.00 0.00 0.00 0.00 0.00 0.00 0.00 0.00 0.00 0.00
MSLP
1018.17 1018.35 1018.51 1018.62 1018.69 1018.72 1018.75 1018.80 1018.89 1019.03 1019.22 1019.44 1019.66 1019.85 1019.99 1020.07 1020.09 1020.04 1019.97 1019.87 1019.79 1019.73 1019.70 1019.72 1019.78 1019.87 1020.00 1020.16 1020.34 1020.54 1020.78 1021.03 1021.29 1021.55 1021.78 1021.96 1022.07 1022.10 1022.03 1021.87 1021.63 1021.33 1021.01
1018.18 1018.43 1018.65 1018.80 1018.87 1018.89 1018.89 1018.92 1019.00 1019.15 1019.37 1019.65 1019.93 1020.19 1020.39 1020.49 1020.51 1020.45 1020.35 1020.23 1020.13 1020.08 1020.07 1020.13 1020.22 1020.34 1020.48 1020.62 1020.77 1020.94 1021.13 1021.35 1021.61 1021.90 1022.20 1022.50 1022.75 1022.93 1023.01 1022.97 1022.83 1022.58 1022.27
1018.05 1018.40 1018.69 1018.90 1019.00 1019.02 1019.00 1019.00 1019.07 1019.22 1019.47 1019.79 1020.13 1020.45 1020.69 1020.83 1020.87 1020.81 1020.70 1020.57 1020.47 1020.42 1020.44 1020.52 1020.64 1020.79 1020.93 1021.05 1021.16 1021.27 1021.40 1021.58 1021.82 1022.13 1022.49 1022.88 1023.27 1023.60 1023.83 1023.95 1023.94 1023.79 1023.54
1017.74 1018.20 1018.60 1018.88 1019.02 1019.06 1019.04 1019.03 1019.08 1019.24 1019.50 1019.84 1020.23 1020.59 1020.88 1021.06 1021.12 1021.08 1020.98 1020.87 1020.78 1020.75 1020.80 1020.90 1021.05 1021.21 1021.35 1021.45 1021.52 1021.58 1021.65 1021.78 1021.98 1022.29 1022.68 1023.14 1023.62 1024.08 1024.47 1024.74 1024.87 1024.85 1024.70
1017.24 1017.83 1018.34 1018.72 1018.93 1019.01 1019.00 1018.99 1019.03 1019.18 1019.44 1019.80 1020.21 1020.61 1020.94 1021.17 1021.27 1021.27 1021.20 1021.12 1021.06 1021.06 1021.14 1021.27 1021.44 1021.62 1021.75 1021.84 1021.88 1021.90 1021.92 1021.99 1022.15 1022.43 1022.82 1023.30 1023.84 1024.39 1024.89 1025.28 1025.55 1025.66 1025.64
1016.57 1017.29 1017.93 1018.41 1018.71 1018.85 1018.87 1018.87 1018.91 1019.05 1019.31 1019.67 1020.09 1020.52 1020.89 1021.17 1021.33 1021.38 1021.37 1021.33 1021.31 1021.35 1021.46 1021.63 1021.82 1022.01 1022.16 1022.24 1022.27 1022.26 1022.24 1022.27 1022.38 1022.61 1022.97 1023.43 1023.98 1024.55 1025.10 1025.58 1025.95 1026.18 1026.27
1015.78 1016.62 1017.38 1017.98 1018.37 1018.59 1018.66 1018.68 1018.73 1018.87 1019.12 1019.48 1019.91 1020.36 1020.78 1021.10 1021.32 1021.44 1021.49 1021.51 1021.54 1021.63 1021.77 1021.96 1022.18 1022.39 1022.55 1022.65 1022.69 1022.67 1022.64 1022.63 1022.70 1022.88 1023.17 1023.57 1024.07 1024.61 1025.16 1025.66 1026.09 1026.40 1026.59
1014.93 1015.86 1016.73 1017.44 1017.94 1018.24 1018.38 1018.45 1018.52 1018.67 1018.92 1019.28 1019.72 1020.19 1020.63 1021.01 1021.29 1021.47 1021.59 1021.67 1021.76 1021.88 1022.05 1022.27 1022.51 1022.73 1022.92 1023.05 1023.11 1023.11 1023.09 1023.08 1023.11 1023.23 1023.45 1023.77 1024.17 1024.64 1025.13 1025.60 1026.03 1026.39 1026.66
1014.10 1015.09 1016.04 1016.84 1017.44 1017.82 1018.05 1018.18 1018.30 1018.47 1018.73 1019.10 1019.55 1020.03 1020.51 1020.92 1021.26 1021.51 1021.69 1021.83 1021.96 1022.12 1022.31 1022.54 1022.79 1023.04 1023.25 1023.42 1023.52 1023.56 1023.57 1023.57 1023.59 1023.66 1023.81 1024.03 1024.32 1024.68 1025.08 1025.49 1025.89 1026.25 1026.56
1013.33 1014.35 1015.34 1016.21 1016.88 1017.36 1017.67 1017.88 1018.06 1018.28 1018.57 1018.96 1019.41 1019.92 1020.42 1020.87 1021.26 1021.56 1021.79 1021.98 1022.15 1022.32 1022.53 1022.76 1023.02 1023.28 1023.52 1023.72 1023.87 1023.97 1024.03 1024.06 1024.09 1024.14 1024.22 1024.36 1024.55 1024.79 1025.07 1025.40 1025.74 1026.09 1026.42
1012.68 1013.68 1014.67 1015.57 1016.30 1016.86 1017.26 1017.56 1017.81 1018.09 1018.43 1018.84 1019.32 1019.83 1020.35 1020.84 1021.26 1021.61 1021.88 1022.11 1022.30 1022.49 1022.70 1022.93 1023.18 1023.44 1023.70 1023.94 1024.14 1024.30 1024.42 1024.50 1024.56 1024.61 1024.66 1024.73 1024.83 1024.97 1025.16 1025.40 1025.67 1025.99 1026.32
1012.14 1013.08 1014.03 1014.93 1015.69 1016.31 1016.79 1017.18 1017.52 1017.87 1018.26 1018.71 1019.21 1019.75 1020.29 1020.79 1021.24 1021.62 1021.93 1022.18 1022.40 1022.60 1022.81 1023.03 1023.27 1023.53 1023.80 1024.07 1024.32 1024.53 1024.71 1024.85 1024.95 1025.02 1025.07 1025.11 1025.15 1025.22 1025.33 1025.49 1025.72 1026.00 1026.32
1011.70 1012.54 1013.42 1014.27 1015.04 1015.70 1016.25 1016.73 1017.16 1017.59 1018.04 1018.53 1019.06 1019.62 1020.17 1020.69 1021.16 1021.57 1021.91 1022.19 1022.43 1022.65 1022.85 1023.07 1023.31 1023.56 1023.84 1024.12 1024.39 1024.66 1024.89 1025.08 1025.23 1025.34 1025.40 1025.44 1025.46 1025.49 1025.55 1025.67 1025.85 1026.09 1026.40
1011.31 1012.02 1012.80 1013.59 1014.34 1015.02 1015.63 1016.18 1016.70 1017.20 1017.72 1018.26 1018.82 1019.39 1019.95 1020.49 1020.98 1021.42 1021.79 1022.11 1022.38 1022.62 1022.85 1023.07 1023.30 1023.55 1023.82 1024.10 1024.39 1024.68 1024.95 1025.19 1025.38 1025.53 1025.62 1025.68 1025.71 1025.73 1025.77 1025.86 1026.01 1026.22 1026.51
1010.93 1011.50 1012.16 1012.87 1013.58 1014.27 1014.92 1015.54 1016.13 1016.70 1017.28 1017.86 1018.45 1019.04 1019.62 1020.17 1020.68 1021.15 1021.57 1021.94 1022.25 1022.53 1022.79 1023.02 1023.26 1023.51 1023.77 1024.04 1024.33 1024.62 1024.90 1025.17 1025.39 1025.57 1025.70 1025.79 1025.84 1025.87 1025.92 1026.00 1026.13 1026.32 1026.57
1010.51 1010.94 1011.49 1012.11 1012.78 1013.46 1014.13 1014.80 1015.46 1016.10 1016.73 1017.35 1017.97 1018.57 1019.16 1019.73 1020.28 1020.78 1021.25 1021.67 1022.04 1022.38 1022.67 1022.94 1023.19 1023.44 1023.69 1023.94 1024.21 1024.49 1024.76 1025.03 1025.27 1025.47 1025.63 1025.74 1025.82 1025.88 1025.94 1026.02 1026.14 1026.31 1026.52
1010.03 1010.35 1010.79 1011.34 1011.95 1012.62 1013.31 1014.02 1014.72 1015.41 1016.09 1016.74 1017.38 1018.00 1018.61 1019.20 1019.77 1020.32 1020.84 1021.32 1021.76 1022.15 1022.50 1022.81 1023.08 1023.33 1023.56 1023.79 1024.03 1024.28 1024.53 1024.78 1025.01 1025.22 1025.40 1025.54 1025.65 1025.74 1025.81 1025.90 1026.01 1026.15 1026.33
1009.52 1009.75 1010.10 1010.58 1011.15 1011.80 1012.50 1013.23 1013.97 1014.70 1015.41 1016.09 1016.75 1017.38 1018.00 1018.61 1019.21 1019.80 1020.37 1020.91 1021.41 1021.86 1022.26 1022.60 1022.89 1023.14 1023.36 1023.57 1023.77 1023.98 1024.19 1024.41 1024.63 1024.84 1025.03 1025.19 1025.32 1025.43 1025.52 1025.61 1025.72 1025.84 1025.98
1009.01 1009.17 1009.47 1009.89 1010.43 1011.06 1011.76 1012.51 1013.27 1014.02 1014.74 1015.44 1016.11 1016.75 1017.38 1018.01 1018.63 1019.25 1019.85 1020.43 1020.98 1021.48 1021.92 1022.28 1022.59 1022.84 1023.05 1023.23 1023.39 1023.56 1023.75 1023.94 1024.14 1024.34 1024.53 1024.70 1024.85 1024.97 1025.08 1025.18 1025.28 1025.39 1025.50
1008.56 1008.68 1008.94 1009.32 1009.84 1010.45 1011.15 1011.90 1012.66 1013.41 1014.14 1014.84 1015.51 1016.16 1016.79 1017.42 1018.05 1018.69 1019.31 1019.92 1020.49 1021.01 1021.46 1021.84 1022.15 1022.39 1022.58 1022.73 1022.88 1023.02 1023.18 1023.35 1023.53 1023.73 1023.92 1024.10 1024.26 1024.41 1024.53 1024.63 1024.73 1024.83 1024.93
1008.21 1008.32 1008.56 1008.92 1009.42 1010.01 1010.69 1011.42 1012.17 1012.91 1013.63 1014.32 1014.98 1015.62 1016.25 1016.88 1017.50 1018.13 1018.76 1019.36 1019.93 1020.44 1020.88 1021.25 1021.54 1021.77 1021.94 1022.08 1022.21 1022.34 1022.48 1022.65 1022.83 1023.03 1023.23 1023.42 1023.60 1023.75 1023.88 1024.00 1024.10 1024.19 1024.28
1008.02 1008.13 1008.36 1008.72 1009.18 1009.76 1010.40 1011.10 1011.81 1012.52 1013.21 1013.88 1014.52 1015.15 1015.76 1016.37 1016.98 1017.59 1018.19 1018.77 1019.30 1019.78 1020.19 1020.53 1020.79 1020.99 1021.15 1021.28 1021.40 1021.53 1021.68 1021.86 1022.05 1022.26 1022.48 1022.68 1022.87 1023.03 1023.17 1023.29 1023.39 1023.48 1023.57
1007.99 1008.12 1008.35 1008.69 1009.13 1009.67 1010.26 1010.90 1011.57 1012.23 1012.87 1013.51 1014.12 1014.72 1015.31 1015.90 1016.49 1017.07 1017.63 1018.16 1018.64 1019.06 1019.42 1019.71 1019.93 1020.10 1020.24 1020.36 1020.48 1020.63 1020.80 1021.00 1021.22 1021.45 1021.68 1021.89 1022.09 1022.26 1022.40 1022.51 1022.61 1022.71 1022.80
1008.13 1008.28 1008.51 1008.83 1009.24 1009.71 1010.24 1010.81 1011.40 1012.00 1012.59 1013.17 1013.75 1014.33 1014.90 1015.46 1016.02 1016.56 1017.08 1017.55 1017.97 1018.32 1018.61 1018.83 1019.01 1019.14 1019.26 1019.38 1019.52 1019.68 1019.88 1020.11 1020.35 1020.60 1020.85 1021.07 1021.27 1021.43 1021.56 1021.67 1021.76 1021.85 1021.94
1008.40 1008.56 1008.79 1009.09 1009.45 1009.86 1010.31 1010.79 1011.29 1011.81 1012.34 1012.87 1013.41 1013.95 1014.50 1015.05 1015.58 1016.08 1016.55 1016.96 1017.31 1017.59 1017.81 1017.97 1018.09 1018.19 1018.29 1018.41 1018.55 1018.74 1018.96 1019.21 1019.48 1019.75 1020.00 1020.22 1020.40 1020.55 1020.66 1020.75 1020.82 1020.90 1020.98
1008.74 1008.92 1009.15 1009.41 1009.72 1010.05 1010.42 1010.81 1011.22 1011.65 1012.10 1012.58 1013.08 1013.60 1014.13 1014.65 1015.16 1015.63 1016.05 1016.41 1016.70 1016.92 1017.07 1017.17 1017.24 1017.31 1017.38 1017.49 1017.64 1017.84 1018.08 1018.34 1018.61 1018.88 1019.12 1019.32 1019.48 1019.60 1019.68 1019.74 1019.79 1019.84 1019.91
Thickness
5730 5732 5734 5734 5733 5732 5731 5730 5729 5727 5726 5724 5722 5720 5718 5718 5718 5717 5716 5716 5715 5713 5712 5709 5708 5706 5704 5701 5700 5698 5696 5693 5693 5692 5689 5690 5692 5693 5694 5696 5698 5699 5701
5726 5728 5730 5730 5730 5730 5729 5728 5727 5726 5726 5724 5722 5720 5718 5717 5716 5715 5715 5714 5714 5713 5711 5709 5707 5705 5704 5701 5700 5698 5695 5692 5691 5690 5686 5683 5684 5687 5690 5692 5693 5695 5698
5724 5725 5726 5727 5727 5727 5727 5728 5726 5726 5725 5723 5722 5719 5717 5715 5714 5713 5712 5712 5712 5712 5710 5708 5707 5705 5703 5700 5699 5698 5696 5691 5689 5689 5687 5682 5678 5680 5684 5686 5689 5691 5693
5725 5726 5726 5726 5726 5727 5727 5726 5725 5725 5724 5723 5721 5718 5714 5711 5711 5710 5710 5711 5711 5710 5709 5708 5707 5705 5703 5701 5700 5698 5696 5693 5689 5687 5687 5687 5685 5682 5679 5682 5685 5687 5688
5726 5726 5727 5727 5728 5727 5726 5725 5724 5723 5723 5722 5721 5718 5714 5712 5710 5710 5709 5709 5709 5709 5708 5707 5706 5704 5702 5701 5699 5697 5696 5693 5690 5687 5686 5686 5685 5684 5681 5678 5680 5682 5684
5727 5727 5728 5728 5727 5726 5725 5724 5722 5722 5721 5720 5719 5717 5714 5712 5710 5709 5708 5707 5707 5707 5707 5706 5705 5703 5702 5700 5698 5697 5695 5692 5690 5688 5687 5686 5685 5683 5681 5677 5676 5676 5679
5728 5727 5726 5725 5724 5724 5723 5723 5721 5720 5719 5719 5718 5717 5715 5712 5710 5709 5707 5706 5705 5704 5704 5705 5704 5702 5701 5699 5698 5696 5693 5691 5689 5687 5686 5686 5686 5685 5683 5679 5675 5674 5675
5729 5729 5729 5727 5726 5725 5723 5722 5721 5720 5719 5718 5717 5716 5715 5712 5710 5709 5707 5706 5704 5704 5704 5703 5702 5701 5700 5698 5697 5695 5692 5690 5688 5687 5686 5685 5685 5685 5683 5681 5677 5672 5670
5731 5730 5729 5728 5727 5726 5725 5724 5722 5720 5718 5718 5717 5715 5714 5712 5710 5709 5707 5706 5705 5704 5703 5702 5701 5700 5698 5697 5695 5693 5690 5689 5687 5686 5685 5684 5683 5683 5682 5681 5679 5674 5667
5731 5731 5730 5729 5728 5727 5725 5724 5723 5721 5719 5717 5716 5715 5713 5712 5710 5709 5707 5705 5704 5703 5702 5701 5699 5698 5696 5695 5693 5691 5689 5688 5685 5684 5683 5682 5681 5681 5680 5678 5676 5674 5670
5732 5731 5731 5730 5728 5726 5724 5723 5721 5720 5718 5717 5715 5714 5712 5711 5709 5708 5706 5705 5703 5702 5700 5699 5697 5696 5694 5693 5691 5689 5687 5685 5683 5682 5681 5679 5678 5677 5676 5675 5672 5670 5668
5733 5732 5730 5728 5726 5725 5723 5722 5721 5719 5718 5717 5715 5713 5711 5709 5707 5706 5705 5704 5702 5700 5699 5697 5695 5694 5692 5691 5689 5687 5685 5683 5681 5679 5678 5676 5676 5674 5672 5670 5668 5666 5664
5731 5729 5727 5725 5725 5724 5723 5722 5721 5720 5718 5716 5713 5711 5709 5708 5706 5704 5703 5702 5700 5698 5696 5695 5693 5691 5690 5688 5686 5684 5682 5680 5678 5677 5675 5673 5672 5670 5668 5666 5664 5662 5661
5729 5728 5726 5725 5725 5725 5724 5722 5721 5720 5717 5714 5712 5710 5708 5707 5705 5703 5701 5700 5698 5696 5694 5692 5690 5689 5687 5686 5684 5682 5679 5677 5676 5674 5673 5671 5669 5667 5665 5663 5660 5658 5655
5727 5727 5727 5726 5725 5724 5723 5722 5720 5718 5717 5713 5711 5710 5708 5706 5703 5701 5699 5697 5695 5693 5691 5689 5687 5686 5684 5683 5681 5679 5677 5674 5672 5670 5669 5668 5667 5665 5663 5660 5656 5654 5650
5728 5729 5728 5727 5726 5725 5724 5723 5720 5718 5716 5713 5710 5709 5706 5703 5701 5699 5696 5694 5692 5690 5688 5686 5684 5682 5682 5681 5679 5677 5673 5671 5669 5666 5665 5664 5663 5662 5660 5658 5655 5652 5647
5729 5729 5730 5730 5729 5728 5727 5725 5722 5719 5715 5712 5710 5707 5704 5701 5699 5697 5693 5691 5689 5686 5684 5682 5680 5678 5678 5678 5676 5673 5670 5667 5665 5663 5661 5660 5659 5657 5655 5653 5651 5648 5645
5730 5731 5731 5731 5731 5730 5728 5725 5721 5718 5714 5711 5708 5706 5703 5700 5696 5693 5691 5688 5685 5683 5681 5678 5677 5675 5674 5674 5672 5670 5666 5663 5661 5659 5657 5655 5653 5652 5649 5647 5644 5641 5639
5733 5734 5734 5733 5731 5729 5727 5723 5719 5716 5713 5710 5708 5705 5702 5698 5694 5691 5688 5685 5682 5680 5678 5676 5673 5671 5670 5670 5668 5665 5661 5658 5655 5654 5652 5650 5648 5647 5645 5641 5637 5635 5633
5733 5733 5732 5731 5728 5727 5725 5720 5717 5714 5712 5711 5708 5705 5701 5697 5693 5690 5686 5683 5680 5677 5675 5672 5670 5668 5666 5666 5664 5662 5657 5653 5650 5648 5647 5646 5644 5642 5639 5636 5632 5629 5627
5731 5731 5730 5727 5726 5724 5722 5718 5715 5714 5714 5710 5706 5702 5698 5695 5692 5687 5683 5679 5676 5672 5669 5667 5665 5663 5662 5661 5659 5657 5653 5650 5646 5643 5641 5640 5639 5636 5634 5631 5627 5624 5622
5726 5726 5724 5722 5722 5721 5719 5715 5713 5714 5710 5706 5702 5698 5694 5691 5688 5682 5678 5675 5671 5667 5663 5661 5659 5657 5656 5655 5654 5652 5649 5646 5642 5639 5637 5635 5633 5630 5627 5624 5621 5618 5614
5720 5720 5719 5717 5716 5716 5715 5712 5711 5708 5705 5702 5698 5694 5690 5686 5683 5679 5674 5669 5666 5663 5659 5656 5654 5652 5651 5649 5648 5646 5644 5641 5637 5635 5632 5629 5626 5623 5620 5617 5613 5610 5605
5713 5713 5713 5711 5710 5710 5710 5709 5707 5704 5701 5697 5693 5688 5684 5680 5677 5674 5671 5666 5663 5659 5656 5653 5650 5648 5645 5643 5641 5639 5637 5635 5631 5627 5624 5622 5618 5614 5611 5608 5604 5600 5596
5706 5707 5706 5705 5704 5704 5703 5703 5701 5699 5694 5691 5687 5683 5680 5676 5672 5669 5667 5665 5664 5662 5658 5654 5650 5645 5642 5642 5640 5635 5631 5628 5625 5620 5615 5611 5607 5603 5600 5597 5594 5590 5586
5699 5699 5698 5698 5697 5697 5696 5696 5695 5692 5688 5684 5680 5677 5673 5670 5667 5663 5660 5659 5658 5656 5654 5652 5648 5645 5643 5640 5635 5630 5627 5623 5618 5611 5606 5602 5599 5595 5592 5588 5584 5581 5577